Left ArrowRight Arrow

39.12711, -84.51439

Hourly Observations for June 18, 2024

Temp ( °F °C ) Dew Point ( °F °C ) Humidity (%) Winds ( mph kmh ) Pressure ( in mb ) Visibility ( mi km ) Precip ( " mm )
12:53 am 00:53 Clear 76 24.4 73 22.8 91 91 SSW 6 9 30.06 1018 8 13 0.00 0.00
1:53 am 01:53 Clear 77 25 72 22.2 84 84 S 5 7 30.07 1018 9 14 0.00 0.00
2:53 am 02:53 Clear 77 25 71 21.7 82 82 SSW 3 6 30.07 1018 9 14 0.00 0.00
3:53 am 03:53 Clear 75 23.9 70 21.1 84 84 SW 3 6 30.07 1018 9 14 0.00 0.00
4:53 am 04:53 Clear 74 23.3 70 21.1 87 87 Calm 30.08 1019 8 13 0.00 0.00
5:53 am 05:53 Clear with Mist and Fog 72 22.2 70 21.1 93 93 Calm 30.09 1019 6 10 0.00 0.00
6:53 am 06:53 Sunny with Mist and Fog 72 22.2 69 20.6 91 91 Calm 30.10 1019 6 10 0.00 0.00
7:53 am 07:53 Sunny 76 24.4 71 21.7 85 85 Calm 30.12 1020 7 11 0.00 0.00
8:53 am 08:53 Sunny 80 26.7 72 22.2 76 76 undefined N/A 30.14 1021 8 13 0.00 0.00
9:53 am 09:53 Sunny 84 28.9 73 22.8 70 70 S 7 11 30.14 1021 8 13 0.00 0.00
10:53 am 10:53 Sunny 87 30.6 74 23.3 65 65 SSW 7 11 30.14 1021 8 13 0.00 0.00
11:53 am 11:53 Sunny 89 31.7 72 22.2 57 57 S 10 17 30.13 1020 8 13 0.00 0.00
12:53 pm 12:53 Partly Cloudy 90 32.2 73 22.8 58 58 VRB 6 9 30.14 1021 9 14 0.00 0.00
1:53 pm 13:53 Mostly Sunny 90 32.2 73 22.8 58 58 SSE 7 11 30.14 1021 9 14 0.00 0.00
2:53 pm 14:53 Mostly Sunny 90 32.2 72 22.2 56 56 S 3 6 30.13 1020 10 16 0.00 0.00
3:53 pm 15:53 Sunny 91 32.8 71 21.7 52 52 S 8 13 30.12 1020 10 16 0.00 0.00
4:53 pm 16:53 Sunny 92 33.3 70 21.1 49 49 SSE 3 6 30.11 1020 10 16 0.00 0.00
5:53 pm 17:53 Sunny 91 32.8 72 22.2 54 54 S 7 11 30.10 1019 10 16 0.00 0.00
6:53 pm 18:53 Sunny 88 31.1 74 23.3 63 63 SSE 3 6 30.10 1019 9 14 0.00 0.00
7:53 pm 19:53 Sunny 86 30 75 23.9 70 70 Calm 30.10 1019 8 13 0.00 0.00
8:53 pm 20:53 Sunny 82 27.8 75 23.9 79 79 Calm 30.10 1019 8 13 0.00 0.00
9:53 pm 21:53 Clear 78 25.6 74 23.3 87 87 Calm 30.11 1020 8 13 0.00 0.00
10:53 pm 22:53 Clear 78 25.6 74 23.3 87 87 Calm 30.13 1020 8 13 0.00 0.00
11:53 pm 23:53 Clear 78 25.6 74 23.3 87 87 Calm 30.13 1020 8 13 0.00 0.00

Powered by Vaisala Xweather